Flag for Germany Weather past 2 weeks in Düren, North Rhine-Westphalia, Germany

Now
70 °F

Passing clouds.


Feels Like: 70 °F
Forecast: 51 / 69 °F
Wind: 5 mph from West

Location: Noervenich

Current Time: Oct 1, 2014 at 4:15:35 PM

Latest Report: Oct 1, 2014 at 3:20 PM


Visibility: N/A

Pressure: 30.30 "Hg

Humidity: 60%

Dew point: 55 °F

Location of DürenLocation

Historic Weather in Düren — Graph

°F

Düren temperature yesterday

Maximum temperature yesterday: 68 °F (at 3:20 PM)
Minimum temperature yesterday: 55 °F (at 3:20 AM)
Average temperature yesterday: 61 °F

Past Weeks' High & Low Weather Summary

 TemperatureHumidityPressure
High77 °F (Sep 19, 2:20 PM)100% (Sep 17, 2:20 AM)30.39 "Hg (Sep 17, 2:20 AM)
Low45 °F (Sep 23, 5:20 AM)48% (Sep 23, 4:20 PM)29.83 "Hg (Sep 18, 4:20 AM)
Average60 °F83%30.09 "Hg
* Reported Sep 16 2:20 PM — Oct 1 2:20 PM, Düren, Weather by CustomWeather, © 2014

Note: Actual official high and low records may vary slightly from our data, if they occured in-between our weather recording intervals... More about our weather records

Advertising

Düren weather history for previous 24 hours

 ConditionsComfort  
Time TempWeatherWind HumidityBarometerVisibility
2:20 PM
Oct 1
68 °FPassing clouds.1 mph64%30.33 "HgN/A
1:20 PM68 °FPassing clouds.1 mph64%30.33 "HgN/A
12:20 PM66 °FScattered clouds.2 mph68%30.33 "HgN/A
11:20 AM64 °FScattered clouds.1 mph78%30.33 "HgN/A
10:20 AM64 °FScattered clouds.No wind78%30.33 "HgN/A
9:20 AM59 °FPartly sunny.No wind88%30.30 "Hg6 mi
8:20 AM54 °FFog.1 mph94%30.30 "Hg2 mi
7:20 AM52 °FFog.2 mph100%30.30 "Hg2 mi
6:20 AM54 °FFog.1 mph94%30.30 "HgN/A
5:20 AM55 °FPassing clouds.No wind94%30.30 "HgN/A
4:20 AM57 °FPassing clouds.2 mph94%30.30 "HgN/A
3:20 AM57 °FPartly cloudy.1 mph94%30.30 "HgN/A
2:20 AM57 °FPassing clouds.1 mph88%30.30 "HgN/A
1:20 AM57 °FPassing clouds.1 mph94%30.30 "HgN/A
12:20 AM57 °FPassing clouds.2 mph94%30.30 "HgN/A
11:20 PM
Sep 30
55 °FFog.1 mph94%30.30 "Hg6 mi
10:20 PM55 °FFog.1 mph100%30.30 "HgN/A
9:20 PM57 °FFog.1 mph100%30.30 "HgN/A
8:20 PM59 °FPassing clouds.1 mph94%30.30 "HgN/A
7:20 PM63 °FScattered clouds.1 mph83%30.27 "HgN/A
6:20 PM66 °FScattered clouds.2 mph73%30.27 "HgN/A
5:20 PM68 °FScattered clouds.5 mph69%30.27 "HgN/A
4:20 PM68 °FScattered clouds.5 mph69%30.27 "HgN/A
Weather by CustomWeather, © 2014

See weather overviewHow to use our weather pages